Weather History for Francistown, Botswana

Change the Weather History Date:

Monday, July 8, 2013

  Actual Average Record
Temperature  
Mean Temperature 61 °F -  
Max Temperature 76 °F 74 °F 87 °F (2008)
Min Temperature 46 °F 43 °F 33 °F (2007)
Degree Days  
Heating Degree Days 4    
Growing Degree Days 11 (Base 50)    
Moisture  
Dew Point 48 °F    
Average Humidity 63    
Maximum Humidity 93    
Minimum Humidity 26    
Precipitation  
Precipitation 0.00 in - - ()
Sea Level Pressure  
Sea Level Pressure 30.30 in    
Wind  
Wind Speed 6 mph ()    
Max Wind Speed 14 mph    
Max Gust Speed -    
Visibility 6.0 miles    
Events      
Averages and records for this station are not official NWS values.
T = Trace of Precipitation, MM = Missing Value Source: Averaged Metar Reports

Daily Weather History Graph

Daily Weather History Graph

Search for Another Location

Airport:

Trip Planner

Search our weather history database for the weather conditions in past years. The results will help you decide how hot, cold, wet, or windy it might be!

Date:

Astronomy

Jul. 08, 2013 Rise Set
Actual Time 6:48 AM CAT 5:42 PM CAT
Civil Twilight 6:24 AM CAT 6:06 PM CAT
Nautical Twilight 5:56 AM CAT 6:33 PM CAT
Astronomical Twilight 5:29 AM CAT 7:01 PM CAT
Moon 6:37 AM CAT (7/8) 6:01 PM CAT (7/8)
Length of Visible Light 11h 42m
Length of Day
10h 54m
New Moon, 0% of the Moon is Illuminated
Jul 8
New Moon
Jul 16
First Quarter
Jul 22
Full
Jul 29
Last Quarter
Aug 6
New

Hourly Weather History & Observations

Time (CAT) Temp. Windchill Dew Point Humidity Pressure Visibility Wind Dir Wind Speed Gust Speed Precip Events Conditions
12:00 AM 53.6 °F - 46.4 °F 77% 30.30 in - SE 5.8 mph - N/A   Clear
1:00 AM 53.6 °F - 48.2 °F 82% 30.30 in - SE 4.6 mph - N/A   Clear
2:00 AM 51 °F - 47 °F 80%  in 6 mi SE 5.8 mph - -   Partly Cloudy
2:00 AM 51.8 °F - 46.4 °F 82% 30.27 in - SE 5.8 mph - N/A   Clear
3:00 AM 48.2 °F - 44.6 °F 87% 30.27 in - SE 4.6 mph - N/A   Clear
4:00 AM 48.2 °F - 44.6 °F 87% 30.27 in - SE 3.5 mph - N/A   Clear
5:00 AM 48.2 °F - 44.6 °F 87% 30.27 in - South 5.8 mph - N/A   Clear
6:00 AM 46.4 °F 44.3 °F 44.6 °F 93% 30.30 in - SSE 4.6 mph - N/A   Clear
7:00 AM 46.4 °F - 44.6 °F 93% 30.30 in - South 2.3 mph - N/A   Clear
8:00 AM 50.0 °F - 46.4 °F 87% 30.33 in - SE 2.3 mph - N/A   Clear
9:00 AM 57.2 °F - 50.0 °F 77% 30.36 in - ENE 5.8 mph - N/A   Clear
10:00 AM 64.4 °F - 51.8 °F 64% 30.36 in - East 13.8 mph - N/A   Clear
11:00 AM 68.0 °F - 51.8 °F 56% 30.36 in - East 9.2 mph - N/A   Clear
12:00 PM 71.6 °F - 50.0 °F 46% 30.33 in - East 10.4 mph - N/A   Clear
1:00 PM 73.4 °F - 48.2 °F 41% 30.30 in - East 11.5 mph - N/A   Clear
2:00 PM 75 °F - 47 °F 26%  in 6 mi ENE 10.4 mph - -  
2:00 PM 75.2 °F - 48.2 °F 38% 30.27 in - ENE 10.4 mph - N/A   Clear
3:00 PM 77.0 °F - 48.2 °F 36% 30.27 in - East 12.7 mph - N/A   Clear
4:00 PM 75.2 °F - 48.2 °F 38% 30.27 in - ENE 9.2 mph - N/A   Clear
5:00 PM 75.2 °F - 48.2 °F 38% 30.27 in - East 8.1 mph - N/A   Clear
6:00 PM 69.8 °F - 48.2 °F 46% 30.36 in - ESE 8.1 mph - N/A   Clear
7:00 PM 66.2 °F - 50.0 °F 56% 30.27 in - ESE 6.9 mph - N/A   Clear
8:00 PM 64 °F - 48 °F 46%  in 6 mi ESE 6.9 mph - -  
8:00 PM 64.4 °F - 48.2 °F 56% 30.30 in - ESE 6.9 mph - N/A   Clear
9:00 PM 64.4 °F - 48.2 °F 56% 30.30 in - East 8.1 mph - N/A   Clear
10:00 PM 60.8 °F - 46.4 °F 59% 30.33 in - ESE 9.2 mph - N/A   Clear
11:00 PM 57.2 °F - 46.4 °F 67% 30.33 in - SE 5.8 mph - N/A   Clear